Regional Weather Roundup
Issued by NWS Sioux Falls, SD

Home | Current Version | Previous Version | Text Only | Print | Product List | Glossary On
Versions: 1 2 3 4 5 6 7 8 9 10 11 12 13 14 15 16 17 18 19 20 21 22 23 24 25 26 27 28 29 30 31 32 33 34 35 36 37 38 39 40 41 42 43 44 45 46 47 48 49 50
000
ASUS43 KFSD 291602
RWRFSD

WEATHER ROUNDUP FOR SE SOUTH DAKOTA/SW MINNESOTA/NW IOWA
NATIONAL WEATHER SERVICE SIOUX FALLS SD
1100 AM CDT WED MAR 29 2017

NOTE: "FAIR" INDICATES FEW OR NO CLOUDS BELOW 12,000 FEET WITH NO
SIGNIFICANT WEATHER AND OR OBSTRUCTIONS TO VISIBILITY.


SDZ038>040-050-052>070-291700-
SOUTHEAST SOUTH DAKOTA

CITY           SKY/WX    TMP DP  RH WIND       PRES   REMARKS
BROOKINGS      CLOUDY    51  38  60 SE16      30.15S
CHAMBERLAIN    MOSUNNY   55  43  62 N6        30.12S
HURON          CLOUDY    56  39  53 MISG      30.14S
MADISON        FAIR      48  46  93 SE14      30.15R
MITCHELL       MOSUNNY   52  41  66 SE14      30.14S
SIOUX FALLS    CLOUDY    49  40  71 E16G23    30.14F
WINNER         CLOUDY    51  46  83 N10       30.12S
YANKTON        CLOUDY    46  41  81 NE15G22   30.11S
$$

MNZ071-072-080-081-089-090-097-098-291700-
SOUTHWEST MINNESOTA

CITY           SKY/WX    TMP DP  RH WIND       PRES   REMARKS
FAIRMONT       CLOUDY    45  38  76 SE14      30.19S
JACKSON        CLOUDY    43  37  81 E9        30.18R
MARSHALL       PTSUNNY   46  38  73 E6        30.19S
MONTEVIDEO     CLOUDY    52  37  58 S8        30.19F
PIPESTONE      CLOUDY    48  36  61 SE8       30.14F
REDWOOD FALLS  CLOUDY    49  38  65 SE7       30.19F
TRACY          CLOUDY    47  41  77 E6        30.18S
WINDOM         CLOUDY    46  39  76 NE10      30.17S
WORTHINGTON    CLOUDY    45  40  82 E12       30.16S
$$

IAZ001>003-012>014-020>022-031-032-NEZ013-014-SDZ071-291700-
NORTHWEST IOWA

CITY           SKY/WX    TMP DP  RH WIND       PRES   REMARKS
CHEROKEE       CLOUDY    44  42  93 NE15G21   30.09F
DENISON        CLOUDY    43  43 100 NE18G30   30.04F FOG
ESTHERVILLE    LGT RAIN  43  40  89 E25G32    30.17R
LE MARS        CLOUDY    45  41  87 NE16G22   30.10F
ORANGE CITY    LGT RAIN  43  41  93 E17G23    30.11F
SHELDON        CLOUDY    45  39  81 E18G25    30.12S
SIOUX CITY     CLOUDY    45  43  93 NE10      30.07F
SPENCER        LGT RAIN  44  40  85 NE22G29   30.13F
STORM LAKE     CLOUDY    45  41  87 E17       30.08F
$$

ABBREVIATIONS USED IN REMARKS
   TC - TEMPERATURE IN CELSIUS
  WCI - WIND CHILL INDEX
   HX - HEAT INDEX
  VSB - VISIBILITY





USA.gov is the U.S. government's official web portal to all federal, state and local government web resources and services.